Simultaneous Nadir Overpasses (SNOs) Predictions

Prediction of SNOs between GOES-16 and NOAA-20 Satellite Orbit:

Table of predicted SNOs for the next 14.0 days since TLE Epoch: 7/6/2018
Index Date Time (GOES-16) GOES-16 Lat,Lon NOAA-20 Lat,Lon Distance(km) Time Diff (sec)
1 07/07/2018 06:31:37 0.01, -75.19 0.31, -76.43 141.34 80
2 07/08/2018 06:12:54 -0.00, -75.20 -0.75, -71.91 374.71 80
3 07/09/2018 18:32:11 0.02, -75.20 -0.42, -77.22 229.59 80
4 07/10/2018 18:16:07 0.02, -75.21 0.58, -72.69 286.93 80
5 07/12/2018 06:37:55 -0.02, -75.21 0.60, -77.96 314.01 80
6 07/13/2018 06:16:30 -0.01, -75.21 -0.39, -73.43 202.59 80
7 07/14/2018 18:38:28 0.01, -75.22 -0.78, -78.74 400.80 80
8 07/15/2018 18:22:23 0.01, -75.23 0.22, -74.21 116.37 80
9 07/17/2018 06:44:11 -0.01, -75.24 0.96, -79.48 483.13 80
10 07/18/2018 06:22:47 -0.00, -75.26 -0.04, -74.95 34.65 80
11 07/20/2018 18:26:00 0.00, -75.30 -0.12, -75.73 49.53 80




NCC Satellite Simultaneous Nadir Overpasses (SNOs) Prediction Service
